Regional Weather Roundup
Issued by NWS State College, PA

Current Version | Previous Version | Text Only | Print | Product List | Glossary On
Versions: 1 2 3 4 5 6 7 8 9 10 11 12 13 14 15 16 17 18 19 20 21 22 23 24 25 26 27 28 29 30 31 32 33 34 35 36 37 38 39 40 41 42 43 44 45 46 47 48 49 50
000
ASUS41 KCTP 242210
RWRCTP

REGIONAL WEATHER ROUNDUP
NATIONAL WEATHER SERVICE STATE COLLEGE PA
600 PM EDT SAT AUG 24 2019

Note: "fair" indicates few or no clouds below 12,000 feet with no
significant weather and/or obstructions to visibility.

* = STATION THAT DOES NOT REPORT PRECIPITATION /E.G. RAIN...SNOW...ETC/
    THUNDER OR FOG.

PAZ002>004-007>009-013>016-020>023-029>032-242300-
WESTERN PENNSYLVANIA

CITY           SKY/WX    TMP DP  RH WIND       PRES   REMARKS
ERIE           FAIR      71  52  50 NE15      30.25S
MEADVILLE      PTSUNNY   69  47  45 E6        30.24S
FRANKLIN*      FAIR      68  50  52 NE6       30.25S
NEW CASTLE     FAIR      71  49  45 N5        30.23S
BEAVER COUNTY  PTSUNNY   73  49  42 E5        30.22
BUTLER*        CLOUDY    70  50  49 NE8       30.23R
PITTSBURGH INT FAIR      72  46  39 N7        30.20S
PITTSBURGH     FAIR      70  49  47 VRB5      30.20S
INDIANA*       PTSUNNY   70  50  49 E5        30.25S
LATROBE        NOT AVBL
WASHINGTON CO* PTSUNNY   71  49  45 NE6       30.22S
$$

PAZ004>006-010>012-017>019-024>028-033>037-041-042-045-046-049>053-242300-
CENTRAL PENNSYLVANIA

CITY           SKY/WX    TMP DP  RH WIND       PRES   REMARKS
BRADFORD       CLOUDY    64  47  53 NE7       30.27R
DUBOIS         FAIR      67  46  47 N9        30.24S
CLEARFIELD     CLOUDY    67  46  47 E6        30.24S
JOHNSTOWN      FAIR      67  47  48 NE9       30.23S
ALTOONA        CLOUDY    68  49  50 NE3       30.22S
STATE COLLEGE  MOSUNNY   68  46  45 NE6       30.23S
WILLIAMSPORT   FAIR      72  46  39 N5        30.20R
SELINSGROVE    FAIR      72  52  49 NW5       30.20S
FT INDIANTOWN  FAIR      71  51  49 N5        30.19R
CAPITAL CITY   CLOUDY    76  48  37 VRB3      30.18S
HARRISBURG     PTSUNNY   74  48  39 NE5       30.18S
YORK           CLOUDY    73  52  47 VRB7      30.19S
$$

PAZ038>040-043-044-047-048-054-055-060>062-067>071-242300-
EASTERN PENNSYLVANIA

CITY           SKY/WX    TMP DP  RH WIND       PRES   REMARKS
SCRANTON       CLOUDY    72  48  42 N8        30.20S
MOUNT POCONO   CLOUDY    66  45  46 N12       30.23R
ALLENTOWN      CLOUDY    76  50  40 NE8       30.18R
QUAKERTOWN*    MOCLDY    73  52  46 CALM      30.19R
READING        FAIR      76  49  38 NE5       30.17R
LANCASTER      CLOUDY    75  53  46 E5        30.18S
COATESVILLE    MOCLDY    72  52  49 N5        30.20S
POTTSTOWN      FAIR      70  50  49 NE3       30.20R
BLUE BELL      PTSUNNY   72  53  50 CALM      30.18S
DOYLESTOWN     CLOUDY    74  50  42 NE6       30.18R
WILLOW GROVE   NOT AVBL
NORTH PHILA    PTSUNNY   77  47  34 NE7       30.18R
PHILADELPHIA   PTSUNNY   75  48  38 NE5       30.16S
$$



USA.gov is the U.S. government's official web portal to all federal, state and local government web resources and services.